Time,TemperatureF,DewpointF,PressureIn,WindDirection,WindDirectionDegrees,WindSpeedMPH,WindSpeedGustMPH,Humidity,HourlyPrecipIn,Conditions,Clouds,dailyrainin,SoftwareType,DateUTC
2013-05-04 00:05:00,50.2,44.0,30.19,ENE,65,3.0,11.0,79,0.00,,,0.00,weatherlink.com 1.10,2013-05-04 04:05:00,
2013-05-04 00:20:00,49.8,44.0,30.19,East,89,2.0,12.0,79,0.00,,,0.00,weatherlink.com 1.10,2013-05-04 04:20:00,
2013-05-04 00:35:00,49.6,44.0,30.19,ENE,71,5.0,9.0,80,0.00,,,0.00,weatherlink.com 1.10,2013-05-04 04:35:00,
2013-05-04 00:50:00,49.4,44.0,30.18,East,89,1.0,13.0,81,0.00,,,0.00,weatherlink.com 1.10,2013-05-04 04:50:00,
2013-05-04 01:05:00,49.4,44.0,30.18,East,87,1.0,9.0,82,0.00,,,0.00,weatherlink.com 1.10,2013-05-04 05:05:00,
2013-05-04 01:20:00,49.4,44.0,30.18,NE,46,1.0,8.0,82,0.00,,,0.00,weatherlink.com 1.10,2013-05-04 05:20:00,
2013-05-04 01:35:00,49.3,44.0,30.17,ENE,72,1.0,7.0,83,0.00,,,0.00,weatherlink.com 1.10,2013-05-04 05:35:00,
2013-05-04 01:50:00,49.1,44.0,30.17,NE,55,4.0,8.0,83,0.00,,,0.00,weatherlink.com 1.10,2013-05-04 05:50:00,
2013-05-04 02:05:00,48.9,44.0,30.16,NE,41,3.0,6.0,84,0.00,,,0.00,weatherlink.com 1.10,2013-05-04 06:05:00,
2013-05-04 02:20:00,48.7,44.0,30.15,NNW,340,3.0,11.0,85,0.00,,,0.00,weatherlink.com 1.10,2013-05-04 06:20:00,
2013-05-04 02:35:00,48.4,44.0,30.15,East,94,3.0,7.0,86,0.00,,,0.00,weatherlink.com 1.10,2013-05-04 06:35:00,
2013-05-04 02:50:00,48.2,44.0,30.15,NE,48,1.0,9.0,86,0.00,,,0.00,weatherlink.com 1.10,2013-05-04 06:50:00,
2013-05-04 03:05:00,48.0,44.0,30.15,East,96,5.0,7.0,87,0.00,,,0.00,weatherlink.com 1.10,2013-05-04 07:05:00,
2013-05-04 03:21:00,47.8,45.0,30.15,ENE,59,2.0,9.0,88,0.00,,,0.00,weatherlink.com 1.10,2013-05-04 07:21:00,
2013-05-04 03:36:00,47.8,45.0,30.15,East,82,3.0,10.0,88,0.00,,,0.00,weatherlink.com 1.10,2013-05-04 07:36:00,
2013-05-04 03:51:00,47.8,45.0,30.15,East,84,0.0,10.0,88,0.00,,,0.00,weatherlink.com 1.10,2013-05-04 07:51:00,
2013-05-04 04:06:00,47.9,45.0,30.15,NNE,27,0.0,11.0,88,0.00,,,0.00,weatherlink.com 1.10,2013-05-04 08:06:00,
2013-05-04 04:21:00,47.9,45.0,30.14,East,88,2.0,9.0,88,0.00,,,0.00,weatherlink.com 1.10,2013-05-04 08:21:00,
2013-05-04 04:36:00,48.0,45.0,30.14,East,101,1.0,13.0,89,0.00,,,0.00,weatherlink.com 1.10,2013-05-04 08:36:00,
2013-05-04 04:51:00,47.9,45.0,30.14,NNW,331,1.0,10.0,89,0.00,,,0.00,weatherlink.com 1.10,2013-05-04 08:51:00,
2013-05-04 05:06:00,47.9,45.0,30.14,NE,49,3.0,14.0,89,0.00,,,0.00,weatherlink.com 1.10,2013-05-04 09:06:00,
2013-05-04 05:21:00,47.9,45.0,30.14,North,9,2.0,8.0,89,0.00,,,0.00,weatherlink.com 1.10,2013-05-04 09:21:00,
2013-05-04 05:36:00,47.9,45.0,30.14,NE,50,8.0,8.0,89,0.00,,,0.00,weatherlink.com 1.10,2013-05-04 09:36:00,
2013-05-04 05:51:00,47.9,45.0,30.14,East,92,2.0,13.0,89,0.00,,,0.00,weatherlink.com 1.10,2013-05-04 09:51:00,
2013-05-04 06:06:00,47.8,45.0,30.15,East,85,5.0,8.0,89,0.00,,,0.00,weatherlink.com 1.10,2013-05-04 10:06:00,
2013-05-04 06:21:00,47.8,45.0,30.15,ENE,70,1.0,10.0,90,0.00,,,0.00,weatherlink.com 1.10,2013-05-04 10:21:00,
2013-05-04 06:36:00,47.7,45.0,30.15,ENE,71,1.0,7.0,90,0.00,,,0.00,weatherlink.com 1.10,2013-05-04 10:36:00,
2013-05-04 06:51:00,47.6,45.0,30.15,East,82,5.0,10.0,90,0.00,,,0.00,weatherlink.com 1.10,2013-05-04 10:51:00,
2013-05-04 07:06:00,47.6,45.0,30.16,ENE,59,9.0,9.0,90,0.00,,,0.00,weatherlink.com 1.10,2013-05-04 11:06:00,
2013-05-04 07:21:00,47.6,45.0,30.16,ENE,66,4.0,10.0,90,0.00,,,0.00,weatherlink.com 1.10,2013-05-04 11:21:00,
2013-05-04 07:36:00,47.7,45.0,30.16,NNE,24,5.0,11.0,90,0.00,,,0.00,weatherlink.com 1.10,2013-05-04 11:36:00,
2013-05-04 07:51:00,47.7,45.0,30.16,North,355,2.0,9.0,90,0.00,,,0.00,weatherlink.com 1.10,2013-05-04 11:51:00,
2013-05-04 08:06:00,47.7,45.0,30.16,ENE,77,1.0,12.0,90,0.00,,,0.00,weatherlink.com 1.10,2013-05-04 12:06:00,
2013-05-04 08:21:00,47.7,45.0,30.17,ENE,72,3.0,11.0,90,0.00,,,0.00,weatherlink.com 1.10,2013-05-04 12:21:00,
2013-05-04 08:36:00,47.7,45.0,30.17,East,89,1.0,11.0,90,0.00,,,0.00,weatherlink.com 1.10,2013-05-04 12:36:00,
2013-05-04 08:51:00,47.9,45.0,30.17,ESE,110,3.0,9.0,90,0.00,,,0.00,weatherlink.com 1.10,2013-05-04 12:51:00,
2013-05-04 09:06:00,48.1,45.0,30.17,ESE,117,2.0,7.0,90,0.00,,,0.00,weatherlink.com 1.10,2013-05-04 13:06:00,
2013-05-04 09:21:00,48.5,45.0,30.17,NW,321,2.0,10.0,88,0.00,,,0.00,weatherlink.com 1.10,2013-05-04 13:21:00,
2013-05-04 09:36:00,49.6,47.0,30.17,ENE,71,7.0,12.0,89,0.00,,,0.00,weatherlink.com 1.10,2013-05-04 13:36:00,
2013-05-04 09:51:00,50.8,47.0,30.16,NE,35,2.0,10.0,85,0.00,,,0.00,weatherlink.com 1.10,2013-05-04 13:51:00,
2013-05-04 10:06:00,50.5,46.0,30.16,East,100,0.0,9.0,85,0.00,,,0.00,weatherlink.com 1.10,2013-05-04 14:06:00,
2013-05-04 10:21:00,50.4,46.0,30.16,NNE,32,10.0,12.0,84,0.00,,,0.00,weatherlink.com 1.10,2013-05-04 14:21:00,
2013-05-04 10:36:00,50.6,46.0,30.16,East,85,3.0,14.0,83,0.00,,,0.00,weatherlink.com 1.10,2013-05-04 14:36:00,
2013-05-04 10:51:00,50.7,46.0,30.16,NNW,344,2.0,13.0,84,0.00,,,0.00,weatherlink.com 1.10,2013-05-04 14:51:00,
2013-05-04 11:06:00,51.0,46.0,30.16,ESE,122,0.0,12.0,83,0.00,,,0.00,weatherlink.com 1.10,2013-05-04 15:06:00,
2013-05-04 11:21:00,52.0,47.0,30.16,North,355,4.0,13.0,83,0.00,,,0.00,weatherlink.com 1.10,2013-05-04 15:21:00,
2013-05-04 11:36:00,52.1,46.0,30.16,ENE,63,3.0,14.0,81,0.00,,,0.00,weatherlink.com 1.10,2013-05-04 15:36:00,
2013-05-04 11:51:00,52.7,47.0,30.15,North,360,1.0,12.0,80,0.00,,,0.00,weatherlink.com 1.10,2013-05-04 15:51:00,
2013-05-04 12:06:00,53.4,47.0,30.15,NE,38,3.0,13.0,79,0.00,,,0.00,weatherlink.com 1.10,2013-05-04 16:06:00,
2013-05-04 12:21:00,53.3,47.0,30.14,NNE,15,3.0,18.0,78,0.00,,,0.00,weatherlink.com 1.10,2013-05-04 16:21:00,
2013-05-04 12:36:00,54.6,48.0,30.14,ENE,57,0.0,14.0,77,0.00,,,0.00,weatherlink.com 1.10,2013-05-04 16:36:00,
2013-05-04 12:51:00,55.5,48.0,30.13,NE,39,7.0,11.0,76,0.00,,,0.00,weatherlink.com 1.10,2013-05-04 16:51:00,
2013-05-04 13:06:00,56.2,48.0,30.13,ENE,74,7.0,13.0,74,0.00,,,0.00,weatherlink.com 1.10,2013-05-04 17:06:00,
2013-05-04 13:21:00,54.8,47.0,30.13,North,5,2.0,15.0,76,0.00,,,0.00,weatherlink.com 1.10,2013-05-04 17:21:00,
2013-05-04 13:36:00,56.0,49.0,30.12,NE,35,3.0,12.0,76,0.00,,,0.00,weatherlink.com 1.10,2013-05-04 17:36:00,
2013-05-04 13:51:00,56.1,49.0,30.12,East,95,8.0,14.0,77,0.00,,,0.00,weatherlink.com 1.10,2013-05-04 17:51:00,
2013-05-04 14:06:00,57.5,50.0,30.11,North,360,4.0,12.0,75,0.00,,,0.00,weatherlink.com 1.10,2013-05-04 18:06:00,
2013-05-04 14:21:00,57.4,50.0,30.11,ESE,103,12.0,18.0,77,0.00,,,0.00,weatherlink.com 1.10,2013-05-04 18:21:00,
2013-05-04 14:36:00,57.1,50.0,30.10,ENE,78,0.0,13.0,77,0.00,,,0.00,weatherlink.com 1.10,2013-05-04 18:36:00,
2013-05-04 14:51:00,57.5,50.0,30.10,NNW,336,0.0,11.0,77,0.00,,,0.00,weatherlink.com 1.10,2013-05-04 18:51:00,
2013-05-04 15:07:00,58.7,50.0,30.10,NE,42,4.0,12.0,74,0.00,,,0.00,weatherlink.com 1.10,2013-05-04 19:07:00,
2013-05-04 15:22:00,58.5,51.0,30.09,East,79,13.0,18.0,75,0.00,,,0.00,weatherlink.com 1.10,2013-05-04 19:22:00,
2013-05-04 15:37:00,58.2,51.0,30.09,NNW,339,7.0,10.0,76,0.00,,,0.00,weatherlink.com 1.10,2013-05-04 19:37:00,
2013-05-04 15:52:00,57.8,51.0,30.08,NE,43,6.0,13.0,78,0.00,,,0.00,weatherlink.com 1.10,2013-05-04 19:52:00,
2013-05-04 16:07:00,57.3,51.0,30.07,NNE,30,6.0,14.0,79,0.00,,,0.00,weatherlink.com 1.10,2013-05-04 20:07:00,
2013-05-04 16:22:00,57.1,51.0,30.07,East,84,6.0,14.0,80,0.00,,,0.00,weatherlink.com 1.10,2013-05-04 20:22:00,
2013-05-04 16:37:00,57.3,52.0,30.07,NNW,329,1.0,11.0,82,0.00,,,0.00,weatherlink.com 1.10,2013-05-04 20:37:00,
2013-05-04 16:52:00,57.5,52.0,30.08,ENE,69,10.0,11.0,82,0.00,,,0.00,weatherlink.com 1.10,2013-05-04 20:52:00,
2013-05-04 17:07:00,58.0,53.0,30.07,NNW,344,3.0,7.0,83,0.00,,,0.00,weatherlink.com 1.10,2013-05-04 21:07:00,
2013-05-04 17:22:00,58.8,52.0,30.07,East,84,3.0,12.0,79,0.00,,,0.00,weatherlink.com 1.10,2013-05-04 21:22:00,
2013-05-04 17:37:00,58.6,52.0,30.07,North,355,3.0,11.0,80,0.00,,,0.00,weatherlink.com 1.10,2013-05-04 21:37:00,
2013-05-04 17:52:00,57.8,52.0,30.06,East,84,3.0,11.0,81,0.00,,,0.00,weatherlink.com 1.10,2013-05-04 21:52:00,
2013-05-04 18:07:00,57.3,52.0,30.06,ENE,63,11.0,11.0,82,0.00,,,0.00,weatherlink.com 1.10,2013-05-04 22:07:00,
2013-05-04 18:22:00,57.2,52.0,30.06,NNE,26,2.0,14.0,83,0.00,,,0.00,weatherlink.com 1.10,2013-05-04 22:22:00,
2013-05-04 18:37:00,57.5,52.0,30.07,ENE,76,5.0,11.0,82,0.00,,,0.00,weatherlink.com 1.10,2013-05-04 22:37:00,
2013-05-04 18:52:00,57.2,52.0,30.07,ESE,109,5.0,11.0,82,0.00,,,0.00,weatherlink.com 1.10,2013-05-04 22:52:00,
2013-05-04 19:07:00,57.1,52.0,30.07,East,84,3.0,7.0,83,0.00,,,0.00,weatherlink.com 1.10,2013-05-04 23:07:00,
2013-05-04 19:22:00,56.9,52.0,30.08,East,80,9.0,12.0,84,0.00,,,0.00,weatherlink.com 1.10,2013-05-04 23:22:00,
2013-05-04 19:37:00,56.6,52.0,30.07,NNE,26,3.0,12.0,84,0.00,,,0.00,weatherlink.com 1.10,2013-05-04 23:37:00,
2013-05-04 19:52:00,56.4,52.0,30.08,NE,34,0.0,9.0,84,0.00,,,0.00,weatherlink.com 1.10,2013-05-04 23:52:00,
2013-05-04 20:08:00,56.2,52.0,30.08,ESE,103,7.0,7.0,84,0.00,,,0.00,weatherlink.com 1.10,2013-05-05 00:08:00,
2013-05-04 20:22:00,56.0,52.0,30.09,ENE,60,4.0,10.0,86,0.00,,,0.00,weatherlink.com 1.10,2013-05-05 00:22:00,
2013-05-04 20:37:00,55.7,52.0,30.08,ENE,76,4.0,7.0,87,0.00,,,0.00,weatherlink.com 1.10,2013-05-05 00:37:00,
2013-05-04 20:52:00,55.3,52.0,30.09,East,93,3.0,7.0,88,0.00,,,0.00,weatherlink.com 1.10,2013-05-05 00:52:00,
2013-05-04 21:07:00,54.8,52.0,30.09,ENE,78,2.0,9.0,89,0.00,,,0.00,weatherlink.com 1.10,2013-05-05 01:07:00,
2013-05-04 21:22:00,54.6,51.0,30.09,NE,49,2.0,7.0,88,0.00,,,0.00,weatherlink.com 1.10,2013-05-05 01:22:00,
2013-05-04 21:37:00,54.5,51.0,30.09,NE,46,1.0,9.0,88,0.00,,,0.00,weatherlink.com 1.10,2013-05-05 01:37:00,
2013-05-04 21:52:00,54.5,51.0,30.09,ENE,63,1.0,10.0,88,0.00,,,0.00,weatherlink.com 1.10,2013-05-05 01:52:00,
2013-05-04 22:07:00,54.5,51.0,30.09,ENE,63,2.0,9.0,88,0.00,,,0.00,weatherlink.com 1.10,2013-05-05 02:07:00,
2013-05-04 22:22:00,54.4,51.0,30.10,NNE,32,2.0,9.0,87,0.00,,,0.00,weatherlink.com 1.10,2013-05-05 02:22:00,
2013-05-04 22:37:00,54.4,51.0,30.09,ESE,109,8.0,11.0,87,0.00,,,0.00,weatherlink.com 1.10,2013-05-05 02:37:00,
2013-05-04 22:52:00,54.3,51.0,30.09,ESE,108,9.0,12.0,87,0.00,,,0.00,weatherlink.com 1.10,2013-05-05 02:52:00,
2013-05-04 23:07:00,54.2,50.0,30.08,ENE,66,4.0,9.0,86,0.00,,,0.00,weatherlink.com 1.10,2013-05-05 03:07:00,
2013-05-04 23:22:00,54.1,50.0,30.08,East,80,7.0,14.0,85,0.00,,,0.00,weatherlink.com 1.10,2013-05-05 03:22:00,
2013-05-04 23:37:00,53.9,50.0,30.08,East,80,5.0,11.0,85,0.00,,,0.00,weatherlink.com 1.10,2013-05-05 03:37:00,
2013-05-04 23:52:00,53.7,49.0,30.08,ESE,110,5.0,9.0,85,0.00,,,0.00,weatherlink.com 1.10,2013-05-05 03:52:00,